Regional Weather Roundup
Issued by NWS

Home | Current Version | Previous Version | Text Only | Print | Product List | Glossary Off
Versions: 1 2 3 4 5 6 7 8 9 10 11 12 13 14 15 16 17 18 19 20 21 22 23 24 25 26 27 28 29 30 31 32 33 34 35 36 37 38 39 40 41 42 43 44 45 46 47 48 49 50

621
ASUS44 KLIX 190911
RWRLA
LOUISIANA WEATHER ROUNDUP
NATIONAL WEATHER SERVICE NEW ORLEANS LA
400 AM CDT SUN APR 19 2015

NOTE: "FAIR" INDICATES FEW OR NO CLOUDS BELOW 12,000 FEET WITH NO
      SIGNIFICANT WEATHER AND/OR OBSTRUCTIONS TO VISIBILITY.
      SKY/WX - SKY CONDITION AND SIGNIFICANT WEATHER.
      TMP - AIR TEMPERATURE.    DP   - DEWPOINT TEMPERATURE.
      RH  - RELATIVE HUMIDITY.  PRES - PRESSURE.
      HX  - HEAT INDEX.         WCI  - WIND CHILL INDEX.

*  THESE STATIONS ARE NOT NWS OR FAA STATIONS AND ARE NOT UNDER
   NWS QUALITY CONTROL.

LAZ040-048-061>063-065-066-069-191000-
SOUTHEAST LOUISIANA

CITY           SKY/WX    TMP DP  RH WIND       PRES   REMARKS
N.O. AUDUBON     N/A     70  68  93 MISG        N/A
N.O. INTL ARPT MOCLDY    71  68  90 SW9       29.80R
N.O. LAKEFRONT CLOUDY    75  70  84 SW12      29.80S
SLIDELL        CLOUDY    73  71  93 VRB6      29.79S
BATON ROUGE    MOCLDY    70  68  93 SW8       29.79S
BOOTHVILLE     MOCLDY    73  71  93 SW3       29.80S
BELLE CHASSE   CLOUDY    71  69  93 W3        29.79S
BOGALUSA*        N/A     70  67  88 SW3       29.80S
GALLIANO*      PTSUNNY   70  69  95 W3        29.80R
NEW ROADS*     CLOUDY    70  69  96 SW9       29.80R
GONZALES*      CLOUDY    71  71 100 CALM      29.78F
HAMMOND*       MOCLDY    72  66  83 SW6       29.81S
HOUMA*         CLOUDY    71  70  98 CALM      29.80R
PORT FOURCHON* NOT AVBL

$$

LAZ041-044-053-054-191000-
SOUTHWEST LOUISIANA

CITY           SKY/WX    TMP DP  RH WIND       PRES   REMARKS
LAKE CHARLES   CLEAR     65  60  84 NW5       29.82F
LAFAYETTE      MOCLDY    71  68  90 W10       29.81S
PATTERSON      MOCLDY    70  68  94 SW6       29.80F
SALT POINT       N/A     71  70  96 VRB5      29.78F
NEW IBERIA     PTCLDY    71  69  93 W8        29.82R
CHENAULT AIRPK CLEAR     65  62  90 NW5       29.83S

$$

LAZ027-028-191000-
CENTRAL LOUISIANA

CITY           SKY/WX    TMP DP  RH WIND       PRES   REMARKS
FORT POLK      MOCLDY    60  59  94 SW3       29.78F
ALEXANDRIA INT CLOUDY    64  61  90 W13       29.78S
ALEXANDRIA     LGT RAIN  64  62  93 W12       29.79R

$$

LAZ001-002-191000-
NORTHWEST LOUISIANA

CITY           SKY/WX    TMP DP  RH WIND       PRES   REMARKS
SHREVEPORT     CLOUDY    61  60  97 N7        29.72F
BARKSDALE AFB  CLOUDY    59  59 100 N9        29.73F
DTN SHREVEPORT CLOUDY    59  57  93 N5        29.73F

$$

LAZ014-016-191000-
NORTHEAST LOUISIANA

CITY           SKY/WX    TMP DP  RH WIND       PRES   REMARKS
MONROE         CLOUDY    67  66  97 W28G39    29.74R
TALLULAH       TSTM      66  64  93 SW13G24   29.74R FOG

$$




USA.gov is the U.S. government's official web portal to all federal, state and local government web resources and services.